Location: Girdwood
(60.9430°N, 149.1660°W)
Time: 19:31:05
(UTC-08:00)

Iridium 86 - Visible Passes

Search period start: 24 October 2014 00:00
Search period end: 02 November 2014 23:00
Orbit: 776 x 779 km, 86.4° (Epoch: 24 October)

Date Brightness Start Highest point End Pass type
(mag) Time Alt. Az. Time Alt. Az. Time Alt. Az.
24 Oct 8.0 01:57:41 18° NNE 01:57:41 18° NNE 01:59:00 10° NNE visible
24 Oct 7.7 03:38:10 18° NNW 03:38:10 18° NNW 03:39:44 10° N visible
24 Oct 8.0 05:18:38 10° NNW 05:18:38 10° NNW 05:18:39 10° NNW visible
25 Oct 8.1 01:24:21 15° NNE 01:24:21 15° NNE 01:25:18 10° NNE visible
25 Oct 7.8 03:04:49 19° N 03:04:49 19° N 03:06:17 10° N visible
25 Oct 7.9 04:45:18 12° NNW 04:45:18 12° NNW 04:46:10 10° NNW visible
26 Oct 8.3 00:51:00 12° NNE 00:51:00 12° NNE 00:51:29 10° NNE visible
26 Oct 8.0 02:31:28 18° N 02:31:28 18° N 02:32:45 10° N visible
26 Oct 7.9 04:11:57 14° NNW 04:11:57 14° NNW 04:13:03 10° N visible
27 Oct 8.1 01:58:07 16° N 01:58:07 16° N 01:59:09 10° N visible
27 Oct 7.9 03:38:36 15° NNW 03:38:36 15° NNW 03:39:45 10° N visible
28 Oct 8.2 01:24:46 14° NNE 01:24:46 14° NNE 01:25:30 10° NNE visible
28 Oct 8.0 03:05:14 16° N 03:05:14 16° N 03:06:20 10° N visible
28 Oct 8.1 04:45:43 10° NNW 04:45:43 10° NNW 04:45:47 10° NNW visible
29 Oct 8.3 00:51:24 12° NNE 00:51:24 12° NNE 00:51:45 10° NNE visible
29 Oct 8.1 02:31:53 16° N 02:31:53 16° N 02:32:50 10° N visible
29 Oct 8.1 04:12:21 12° NNW 04:12:21 12° NNW 04:12:55 10° NNW visible
30 Oct 8.2 01:58:31 14° N 01:58:31 14° N 01:59:17 10° N visible
30 Oct 8.1 03:38:59 13° NNW 03:38:59 13° NNW 03:39:42 10° N visible
31 Oct 8.3 01:25:09 13° NNE 01:25:09 13° NNE 01:25:40 10° N visible
31 Oct 8.2 03:05:37 14° N 03:05:37 14° N 03:06:21 10° N visible
01 Nov 8.4 00:51:47 11° NNE 00:51:47 11° NNE 00:51:58 10° NNE visible
01 Nov 8.3 02:32:15 13° N 02:32:15 13° N 02:32:54 10° N visible
02 Nov 8.4 01:58:53 13° N 01:58:53 13° N 01:59:22 10° N visible
02 Nov 8.3 02:39:21 11° NNW 02:39:21 11° NNW 02:39:36 10° NNW visible
